Location: Cheyres
(46.8153°N, 6.7877°E)
Time: 03:51:22
(UTC+00:00)

Cosmos 2084 Rocket - Pass Details

Date: 11 May 2021
Orbit: 521 x 659 km, 62.8° (Epoch: 18 June)

Event Time Altitude Azimuth Distance (km) Brightness Sun altitude
Rises 21:51:58 0° 322° (NW) 2,767 8.3 -21.5°
Reaches altitude 10° 21:54:12 10° 327° (NNW) 1,889 7.2 -21.6°
Maximum altitude 21:58:23 52° 45° (NE) 739 4.0 -21.9°
Enters shadow 21:59:19 43° 87° (E) 840 4.0 -22.0°
